Simultaneous Nadir Overpasses (SNOs) Predictions

Prediction of SNOs between GOES-17 and TERRA Satellite Orbit:

Table of predicted SNOs for the next 14.0 days since TLE Epoch: 7/27/2024
Index Date Time (GOES-17) GOES-17 Lat,Lon TERRA Lat,Lon Distance(km) Time Diff (sec)
1 07/27/2024 16:28:18 0.00,-104.73 -0.73,-101.37 381.63 80
2 07/28/2024 04:50:57 -0.00,-104.70 -0.33,-106.23 174.70 80
3 07/30/2024 04:30:44 -0.00,-104.70 0.55,-101.99 306.72 80
4 07/30/2024 16:53:16 0.01,-104.73 0.45,-106.83 239.22 80
5 08/01/2024 16:33:02 0.01,-104.73 -0.46,-102.60 242.35 80
6 08/02/2024 04:55:42 -0.01,-104.70 -0.58,-107.46 313.87 80
7 08/04/2024 04:35:27 -0.00,-104.70 0.30,-103.22 168.15 80
8 08/04/2024 16:58:00 0.01,-104.73 0.68,-108.06 377.50 80
9 08/06/2024 16:37:44 0.00,-104.74 -0.17,-103.81 105.38 80
10 08/07/2024 05:00:24 -0.01,-104.71 -0.87,-108.67 450.38 80
11 08/09/2024 04:40:09 -0.00,-104.72 0.08,-104.44 33.03 80
